Hourly Weather Dziadownia

Today, 9 May, Sunday

Time Temperature Precipitation Wind Pressure Humidity
00:00 +4°C° 0 mm 3 mps 748 mmHg 80%
01:00 +3°C° 0 mm 3 mps 748 mmHg 81%
02:00 +3°C° 0 mm 4 mps 748 mmHg 80%
03:00 +3°C° 0 mm 4 mps 747 mmHg 79%
04:00 +3°C° 0 mm 4 mps 747 mmHg 78%
05:00 +5°C° 0 mm 5 mps 747 mmHg 74%
06:00 +7°C° 0 mm 5 mps 747 mmHg 70%
07:00 +8°C° 0 mm 6 mps 747 mmHg 66%
08:00 +10°C° 0 mm 6 mps 747 mmHg 62%
09:00 +13°C° 0 mm 6 mps 747 mmHg 57%
10:00 +15°C° 0 mm 6 mps 746 mmHg 53%
11:00 +16°C° 0 mm 6 mps 746 mmHg 52%
12:00 +18°C° 0 mm 7 mps 746 mmHg 51%
13:00 +20°C° 0 mm 7 mps 746 mmHg 51%
14:00 +20°C° 0 mm 7 mps 746 mmHg 53%
15:00 +20°C° 0 mm 6 mps 745 mmHg 56%
16:00 +20°C° 0 mm 6 mps 745 mmHg 59%
17:00 +17°C° 0 mm 6 mps 745 mmHg 61%
18:00 +16°C° 0 mm 6 mps 745 mmHg 63%
19:00 +14°C° 0 mm 5 mps 745 mmHg 65%
20:00 +14°C° 0 mm 6 mps 745 mmHg 63%
21:00 +13°C° 0 mm 6 mps 745 mmHg 60%
22:00 +13°C° 0 mm 6 mps 745 mmHg 58%
23:00 +12°C° 0 mm 5 mps 745 mmHg 62%

Tomorrow, 10 May, Monday

Time Temperature Precipitation Wind Pressure Humidity
00:00 +10°C° 0 mm 5 mps 745 mmHg 65%
01:00 +10°C° 0 mm 4 mps 745 mmHg 69%
02:00 +10°C° 0 mm 4 mps 745 mmHg 71%
03:00 +10°C° 0 mm 4 mps 744 mmHg 73%
04:00 +8°C° 0 mm 4 mps 744 mmHg 75%
05:00 +11°C° 0 mm 4 mps 744 mmHg 72%
06:00 +12°C° 0 mm 5 mps 744 mmHg 68%
07:00 +14°C° 0 mm 5 mps 744 mmHg 64%
08:00 +16°C° 0 mm 5 mps 744 mmHg 58%
09:00 +19°C° 0 mm 6 mps 744 mmHg 53%
10:00 +21°C° 0 mm 6 mps 744 mmHg 47%
11:00 +22°C° 0 mm 6 mps 744 mmHg 47%
12:00 +23°C° 0 mm 7 mps 744 mmHg 46%
13:00 +24°C° 0 mm 7 mps 743 mmHg 45%
14:00 +23°C° 0 mm 7 mps 743 mmHg 50%
15:00 +23°C° 0 mm 7 mps 744 mmHg 55%
16:00 +22°C° 0 mm 7 mps 744 mmHg 60%
17:00 +21°C° 0 mm 6 mps 744 mmHg 64%
18:00 +19°C° 0 mm 5 mps 744 mmHg 68%
19:00 +18°C° 0 mm 4 mps 744 mmHg 72%
20:00 +17°C° 0 mm 4 mps 744 mmHg 75%
21:00 +16°C° 0 mm 3 mps 744 mmHg 77%
22:00 +14°C° 0 mm 3 mps 744 mmHg 80%
23:00 +14°C° 0 mm 3 mps 744 mmHg 81%

Day after tomorrow, 11 May, Tuesday

Time Temperature Precipitation Wind Pressure Humidity
00:00 +14°C° 0 mm 4 mps 743 mmHg 82%
01:00 +14°C° 0 mm 4 mps 743 mmHg 84%
02:00 +13°C° 0 mm 4 mps 743 mmHg 82%
03:00 +13°C° 0 mm 5 mps 742 mmHg 80%
04:00 +13°C° 0 mm 5 mps 742 mmHg 78%
05:00 +14°C° 0 mm 5 mps 742 mmHg 76%
06:00 +16°C° 0 mm 6 mps 742 mmHg 73%
07:00 +17°C° 0 mm 6 mps 741 mmHg 71%
08:00 +20°C° 0 mm 6 mps 741 mmHg 65%
09:00 +22°C° 0 mm 7 mps 741 mmHg 58%
10:00 +24°C° 0 mm 7 mps 741 mmHg 52%
11:00 +26°C° 0 mm 7 mps 741 mmHg 50%
12:00 +27°C° 0 mm 7 mps 741 mmHg 48%
13:00 +28°C° 0 mm 7 mps 741 mmHg 46%
14:00 +27°C° 0 mm 6 mps 741 mmHg 48%
15:00 +27°C° 0 mm 6 mps 740 mmHg 51%
16:00 +27°C° 0 mm 5 mps 740 mmHg 53%
17:00 +25°C° 0 mm 5 mps 740 mmHg 60%
18:00 +22°C° 0 mm 4 mps 740 mmHg 67%
19:00 +20°C° 0 mm 4 mps 740 mmHg 75%
20:00 +19°C° 0 mm 4 mps 740 mmHg 77%
21:00 +17°C° 0 mm 5 mps 740 mmHg 79%
22:00 +16°C° 0 mm 5 mps 740 mmHg 81%
23:00 +15°C° 0 mm 5 mps 740 mmHg 82%

12 May, Wednesday

Time Temperature Precipitation Wind Pressure Humidity
00:00 +15°C° 0 mm 5 mps 740 mmHg 83%
01:00 +14°C° 0 mm 4 mps 740 mmHg 84%
02:00 +13°C° 0 mm 4 mps 739 mmHg 84%
03:00 +12°C° 0 mm 4 mps 739 mmHg 84%
04:00 +12°C° 0 mm 4 mps 739 mmHg 84%
05:00 +12°C° 0 mm 4 mps 739 mmHg 80%
06:00 +13°C° 0 mm 5 mps 739 mmHg 77%
07:00 +14°C° 0 mm 5 mps 739 mmHg 74%
08:00 +16°C° 0 mm 5 mps 739 mmHg 70%
09:00 +19°C° 0 mm 5 mps 739 mmHg 66%
10:00 +21°C° 0 mm 5 mps 739 mmHg 63%
11:00 +22°C° 0 mm 6 mps 738 mmHg 60%
12:00 +23°C° 0 mm 6 mps 738 mmHg 57%
13:00 +24°C° 0 mm 6 mps 738 mmHg 54%
14:00 +23°C° 0 mm 6 mps 738 mmHg 57%
15:00 +23°C° 0 mm 6 mps 738 mmHg 59%
16:00 +23°C° 0 mm 6 mps 738 mmHg 61%
17:00 +21°C° 0 mm 6 mps 738 mmHg 63%
18:00 +19°C° 0 mm 6 mps 738 mmHg 66%
19:00 +16°C° 0 mm 6 mps 738 mmHg 68%
20:00 +15°C° 0 mm 6 mps 738 mmHg 71%
21:00 +14°C° 0 mm 5 mps 738 mmHg 73%
22:00 +13°C° 0 mm 5 mps 738 mmHg 75%
23:00 +12°C° 0 mm 4 mps 738 mmHg 78%

13 May, Thursday

Time Temperature Precipitation Wind Pressure Humidity
00:00 +12°C° 0 mm 4 mps 738 mmHg 81%
01:00 +11°C° 0 mm 4 mps 738 mmHg 83%
02:00 +10°C° 0 mm 4 mps 738 mmHg 84%
03:00 +8°C° 0 mm 4 mps 738 mmHg 85%
04:00 +8°C° 0 mm 4 mps 738 mmHg 86%
05:00 +10°C° 0 mm 4 mps 738 mmHg 82%
06:00 +10°C° 0 mm 5 mps 738 mmHg 77%
07:00 +12°C° 0 mm 5 mps 738 mmHg 73%
08:00 +13°C° 0 mm 5 mps 738 mmHg 68%
09:00 +14°C° 0 mm 5 mps 738 mmHg 63%
10:00 +16°C° 0 mm 5 mps 737 mmHg 57%
11:00 +16°C° 0 mm 5 mps 737 mmHg 55%
12:00 +17°C° 0 mm 5 mps 737 mmHg 53%
13:00 +17°C° 0 mm 5 mps 737 mmHg 51%
14:00 +18°C° 0 mm 4 mps 737 mmHg 56%
15:00 +17°C° 0 mm 4 mps 737 mmHg 60%
16:00 +16°C° 0 mm 3 mps 737 mmHg 65%
17:00 +14°C° 0 mm 3 mps 737 mmHg 70%
18:00 +14°C° 0 mm 2 mps 737 mmHg 75%
19:00 +13°C° 0 mm 2 mps 737 mmHg 79%
20:00 +12°C° 0 mm 2 mps 738 mmHg 81%
21:00 +12°C° 0 mm 2 mps 738 mmHg 83%
22:00 +10°C° 0 mm 2 mps 738 mmHg 85%
23:00 +10°C° 0 mm 2 mps 738 mmHg 84%

14 May, Friday

Time Temperature Precipitation Wind Pressure Humidity
00:00 +10°C° 0 mm 2 mps 738 mmHg 84%
01:00 +10°C° 0 mm 2 mps 738 mmHg 83%
02:00 +11°C° 0 mm 1 mps 738 mmHg 85%
03:00 +10°C° 0 mm 1 mps 738 mmHg 86%
04:00 +10°C° 0 mm 1 mps 738 mmHg 88%
05:00 +11°C° 0 mm 1 mps 738 mmHg 85%
06:00 +12°C° 0 mm 1 mps 738 mmHg 82%
07:00 +13°C° 0 mm 1 mps 738 mmHg 79%
08:00 +14°C° 0.1 mm 1 mps 738 mmHg 73%
09:00 +15°C° 0.1 mm 2 mps 739 mmHg 67%
10:00 +17°C° 0.1 mm 2 mps 739 mmHg 60%
11:00 +17°C° 0.2 mm 2 mps 739 mmHg 60%
12:00 +17°C° 0.2 mm 2 mps 739 mmHg 60%
13:00 +17°C° 0.2 mm 3 mps 739 mmHg 60%
14:00 +17°C° 0.2 mm 2 mps 739 mmHg 61%
15:00 +17°C° 0.2 mm 2 mps 739 mmHg 63%
16:00 +17°C° 0.2 mm 2 mps 739 mmHg 64%
17:00 +16°C° 0.3 mm 3 mps 739 mmHg 71%
18:00 +14°C° 0.3 mm 3 mps 740 mmHg 78%
19:00 +12°C° 0.3 mm 3 mps 740 mmHg 85%
20:00 +12°C° 0.1 mm 3 mps 740 mmHg 88%
21:00 +11°C° 0.1 mm 3 mps 741 mmHg 92%
22:00 +10°C° 0.1 mm 3 mps 741 mmHg 95%
23:00 +9°C° 0 mm 3 mps 741 mmHg 95%
Show more